Location: Bratislava
(0.0000°N, 17.1167°E)
Time: 05:13:43
(UTC+01:00)

CSL-04 Debris - Pass Details

Date: 24 January 2021
Orbit: 827 x 847 km, 98.9° (Epoch: 04 March)

Event Time Altitude Azimuth Distance (km) Brightness Sun altitude
Rises 19:04:17 0° 157° (SSE) 3,382 7.3 -14.3°
Reaches altitude 10° 19:06:43 10° 151° (SSE) 2,443 6.5 -14.9°
Maximum altitude 19:11:56 49° 77° (ENE) 1,055 4.3 -16.1°
Drops below altitude 10° 19:17:06 10° 3° (N) 2,423 6.4 -17.3°
Sets 19:19:30 0° 358° (N) 3,352 7.1 -17.9°
